STARLINK-35074

Last updated on Tue Sep 16 2025 00:02:07 GMT+0000 (Coordinated Universal Time)

1 65422U 25192U 25258.58341435 -.01478687 00000+0 -15585-1 0 9990 2 65422 53.1595 338.0701 0001178 72.1802 180.5193 15.66413020 3624
UTC large
Height (km)
Speed (km/s)
/
Latitude / Longitude
Inclination (degrees)
Orbital Period (minutes)
Azimuth
Elevation
Range (km)
Doppler Factor

Next 0 passes for location: London (51.5072 / 0.1276)

Sorry there are no passes over London.